[[{"header":{"parameterUnit":"m.s-1","parameterCategory":1,"la1":30.2991,"la2":30.254,"lo1":-89.0895,"lo2":-89.0444,"dy":0.0017,"dx":0.0017,"nx":28,"ny":28,"refTime":"2025-04-12T21:00:00:Z","depth":0,"parameterNumber":2,"parameterNumberName":"U-component_of_WINDS"},"data":[0,0,0,0,0,0,0,0,0,0,0,0,0,0,0,0,0,0,0,0,0,0,0,0,0,0,0,0,0,0,0,0,0,0,0,0,0,0,0,0,0,0,0,0,0,0,0,0,0,0,0,0,0,0,0,0,0,0,1.5976,1.5976,0,1.5993,1.5993,1.5993,1.5974,1.5973,1.5972,1.5971,1.5991,1.5992,1.5993,0,0,0,0,0,0,0,0,0,0,0,0,0,1.593,1.5931,1.5976,1.5976,1.5976,1.5993,1.5993,1.5993,1.5974,1.5973,1.5972,1.5971,1.5991,1.5992,1.5993,0,0,0,0,0,0,0,0,0,0,0,0,0,1.5949,1.5931,1.5976,1.5968,1.5968,1.5993,1.5993,1.5993,1.5974,1.5973,1.5972,1.5971,1.599,1.5992,1.5994,1.6027,0,0,1.5999,1.6,0,0,0,0,0,0,0,0,1.5948,1.595,1.5969,1.5969,1.5968,1.598,1.5984,1.6005,1.5974,1.5972,1.5971,1.597,1.5988,1.599,1.5996,1.6028,1.6029,1.5999,1.6,1.6001,1.6002,0,0,0,0,0,0,0,1.5946,1.595,1.5983,1.597,1.5969,1.5965,1.5967,1.5988,1.5986,1.5972,1.5971,1.5973,1.5988,1.5994,1.5996,1.6029,1.5999,1.6001,1.6002,1.6003,1.6092,1.6093,0,0,0,0,0,0,1.5945,1.5949,1.5982,1.5983,1.5955,1.5967,1.5969,1.5977,1.5986,1.5986,1.5974,1.5972,1.5992,1.5994,1.5997,1.6038,1.6001,1.6003,1.6004,1.6091,1.6092,1.6094,0,0,0,0,0,0,1.5945,1.5949,1.5981,1.5966,1.5969,1.5969,1.5979,1.5978,1.5985,1.5987,1.5987,1.598,1.5991,1.5994,1.602,1.6038,1.6004,1.6005,1.6089,1.6091,1.6093,1.6119,0,0,0,0,0,0,1.5943,1.5948,1.596,1.5966,1.597,1.6003,1.598,1.598,1.5988,1.5985,1.5993,1.5993,1.599,1.6018,1.6022,1.604,1.6007,1.6088,1.609,1.6092,1.6116,1.6121,1.6126,0,0,0,0,0,1.5942,1.5967,1.5961,1.5965,1.5985,1.6004,1.6007,1.6002,1.5989,1.6001,1.6004,1.5993,1.6036,1.602,1.6025,1.6044,1.6086,1.6089,1.6092,1.6114,1.612,1.6125,0,0,0,0,0,0,1.5963,1.5967,1.5961,1.5988,1.5996,1.6001,1.6016,1.6008,1.6021,1.6018,1.6012,1.6014,1.6042,1.6046,1.6029,1.6078,1.6059,1.6063,1.6074,1.608,1.6085,1.6083,1.6008,0,0,0,0,0,1.5971,1.5985,1.5989,1.6013,1.6017,1.6016,1.6024,1.602,1.6028,1.6032,1.6036,1.6045,1.606,1.607,1.6085,1.6117,1.612,1.6133,1.6138,1.6141,1.6145,1.6164,1.617,1.6103,1.6103,1.6103,0,0,1.5987,1.5991,1.6001,1.6017,1.6023,1.6039,1.6019,1.6037,1.6049,1.6035,1.6059,1.6063,1.6073,1.6102,1.6116,1.6106,1.6164,1.6145,1.6148,1.6149,1.6167,1.6174,1.6179,1.6105,1.6105,1.6104,0,0,1.6025,1.6029,1.605,1.6057,1.6066,1.6065,1.6071,1.6077,1.6079,1.6103,1.6093,1.6109,1.6136,1.6144,1.6151,1.6195,1.6187,1.62,1.6224,1.6243,1.6248,1.6253,1.6269,1.6275,1.6204,1.6204,1.6204,0,1.6044,1.6067,1.6062,1.6081,1.6089,1.6077,1.6099,1.6106,1.612,1.6126,1.6116,1.615,1.6156,1.6188,1.6199,1.6205,1.6212,1.6199,1.6248,1.6252,1.6257,1.6272,1.6279,1.6205,1.6205,1.6205,1.6205,0,1.6091,1.6108,1.6124,1.6137,1.6147,1.6167,1.6167,1.6178,1.6174,1.6175,1.6202,1.6209,1.6225,1.6233,1.6229,1.6265,1.6259,1.6248,1.6229,1.6265,1.6279,1.6285,1.6208,1.6207,1.6207,1.6206,0,0,1.614,1.6152,1.6158,1.6165,1.6175,1.6188,1.6209,1.6225,1.6235,1.6246,1.6264,1.6288,1.6279,1.6288,1.6285,1.6302,1.6337,1.6289,1.6289,1.6298,1.6379,1.6387,1.6394,1.6332,1.6334,1.6334,1.6379,0,1.6179,1.6214,1.6211,1.6245,1.6261,1.6251,1.627,1.6279,1.6282,1.6297,1.6301,1.6318,1.6304,1.6309,1.6325,1.633,1.6354,1.6326,1.635,1.6351,1.6347,1.6402,1.6409,1.645,1.6384,1.6385,1.6386,0,1.6227,1.624,1.6275,1.6284,1.6291,1.6308,1.6323,1.6337,1.6349,1.635,1.6361,1.6356,1.6379,1.636,1.6393,1.6374,1.6385,1.6389,1.639,1.6392,1.637,1.6405,1.6463,1.647,1.6395,1.6394,1.6394,0,1.626,1.6286,1.6311,1.6317,1.6328,1.634,1.6346,1.6356,1.6367,1.6381,1.6388,1.6405,1.6414,1.6428,1.6429,1.6415,1.6462,1.6443,1.6464,1.6464,1.6474,1.6473,1.6535,1.6481,1.6481,1.6481,1.6481,0,1.6303,1.6325,1.6326,1.6341,1.6366,1.6364,1.639,1.6394,1.6404,1.6421,1.6415,1.6431,1.6431,1.6449,1.645,1.6477,1.6482,1.6484,1.6484,1.6484,1.6484,1.649,1.6487,1.6482,1.6482,1.6482,1.6481,0,1.6343,1.6344,1.6371,1.638,1.6384,1.6402,1.6411,1.6426,1.6429,1.6451,1.6456,1.6461,1.6482,1.6484,1.6508,1.6509,1.6543,1.654,1.6538,1.6538,1.6559,1.6557,1.6627,1.6636,1.6576,1.6577,1.6577,0,1.637,1.6386,1.6398,1.6409,1.6415,1.6433,1.6444,1.6443,1.6455,1.6471,1.6485,1.6505,1.652,1.6554,1.656,1.6579,1.6577,1.66,1.658,1.658,1.6578,1.6576,1.6579,1.6604,1.6604,1.6605,1.6605,0,1.6417,1.6417,1.6433,1.6449,1.6462,1.6475,1.6487,1.6497,1.6498,1.6512,1.6533,1.6545,1.6571,1.6591,1.661,1.6618,1.6612,1.6612,1.6618,1.6618,1.6617,1.6618,1.6549,1.661,1.661,1.6609,1.6609,1.6609,1.6451,1.6466,1.6477,1.6495,1.6505,1.6517,1.6532,1.6538,1.6555,1.6575,1.6574,1.6597,1.6611,1.6636,1.6645,1.6665,1.6657,1.6666,1.6668,1.667,1.6672,1.6615,1.6668,1.6668,1.6668,1.6668,1.6668,0,1.6498,1.6506,1.6522,1.654,1.6555,1.6548,1.6562,1.6575,1.6596,1.6608,1.6624,1.665,1.667,1.6679,1.67,1.6714,1.6712,1.6719,1.6718,1.672,1.6677,1.667,1.672,1.672,1.672,1.672,1.672,1.672,1.6525,1.655,1.6552,1.6584,1.6591,1.6613,1.6622,1.6634,1.6644,1.6672,1.6689,1.6695,1.6707,1.6729,1.6748,1.6751,1.6759,1.6767,1.6768,1.6728,1.6723,1.6718,1.6711,1.6769,1.6769,1.681,1.681,1.681]},{"header":{"parameterUnit":"m.s-1","parameterCategory":1,"la1":30.2991,"la2":30.254,"lo1":-89.0895,"lo2":-89.0444,"dy":0.0017,"dx":0.0017,"nx":28,"ny":28,"refTime":"2025-04-12T21:00:00:Z","depth":0,"parameterNumber":3,"parameterNumberName":"V-component_of_WINDS"},"data":[0,0,0,0,0,0,0,0,0,0,0,0,0,0,0,0,0,0,0,0,0,0,0,0,0,0,0,0,0,0,0,0,0,0,0,0,0,0,0,0,0,0,0,0,0,0,0,0,0,0,0,0,0,0,0,0,0,0,-2.9045,-2.9046,0,-2.9072,-2.9072,-2.9073,-2.9089,-2.9089,-2.9089,-2.9089,-2.9114,-2.9115,-2.9115,0,0,0,0,0,0,0,0,0,0,0,0,0,-2.9005,-2.9005,-2.9045,-2.9046,-2.9046,-2.9072,-2.9072,-2.9073,-2.9088,-2.9089,-2.9089,-2.9089,-2.9114,-2.9115,-2.9115,0,0,0,0,0,0,0,0,0,0,0,0,0,-2.9026,-2.9005,-2.9045,-2.9057,-2.9058,-2.9072,-2.9072,-2.9073,-2.9088,-2.9089,-2.9089,-2.9089,-2.9114,-2.9114,-2.9115,-2.9119,0,0,-2.9118,-2.9119,0,0,0,0,0,0,0,0,-2.9025,-2.9027,-2.9055,-2.9056,-2.9058,-2.9077,-2.9067,-2.9088,-2.9088,-2.9077,-2.9089,-2.9089,-2.9102,-2.9103,-2.9108,-2.912,-2.9121,-2.9118,-2.9119,-2.9119,-2.9119,0,0,0,0,0,0,0,-2.9023,-2.9026,-2.9056,-2.9055,-2.9057,-2.906,-2.9063,-2.9071,-2.9088,-2.9078,-2.9079,-2.9082,-2.9102,-2.9107,-2.9109,-2.9121,-2.9118,-2.9119,-2.912,-2.912,-2.9135,-2.9135,0,0,0,0,0,0,-2.902,-2.9025,-2.9055,-2.9057,-2.9041,-2.906,-2.9064,-2.9071,-2.9088,-2.9091,-2.9082,-2.9083,-2.9106,-2.9108,-2.911,-2.9113,-2.9119,-2.912,-2.9121,-2.9135,-2.9135,-2.9135,0,0,0,0,0,0,-2.9019,-2.9023,-2.9054,-2.9041,-2.9045,-2.9061,-2.9068,-2.9071,-2.9076,-2.9091,-2.9094,-2.9084,-2.9106,-2.9109,-2.9116,-2.9115,-2.912,-2.9121,-2.9135,-2.9135,-2.9135,-2.9122,0,0,0,0,0,0,-2.9018,-2.9022,-2.9025,-2.9041,-2.9046,-2.9061,-2.9068,-2.9072,-2.9078,-2.9079,-2.9094,-2.9097,-2.9106,-2.9115,-2.9117,-2.9116,-2.9122,-2.9135,-2.9135,-2.9135,-2.9122,-2.9121,-2.912,0,0,0,0,0,-2.9016,-2.902,-2.9025,-2.9028,-2.9049,-2.9061,-2.9063,-2.9075,-2.9078,-2.908,-2.9089,-2.9096,-2.9114,-2.9115,-2.9118,-2.9117,-2.9135,-2.9135,-2.9135,-2.9123,-2.9121,-2.912,0,0,0,0,0,0,-2.9003,-2.9022,-2.9028,-2.9037,-2.9047,-2.9063,-2.9066,-2.9073,-2.9082,-2.9083,-2.9096,-2.9099,-2.9105,-2.9112,-2.9112,-2.912,-2.9126,-2.9126,-2.9115,-2.9114,-2.9113,-2.9111,-2.9123,0,0,0,0,0,-2.9001,-2.9009,-2.9026,-2.9032,-2.9037,-2.905,-2.9056,-2.9064,-2.9074,-2.9078,-2.9088,-2.9098,-2.9105,-2.911,-2.9118,-2.9123,-2.9126,-2.9124,-2.9123,-2.9122,-2.9122,-2.9123,-2.9122,-2.9133,-2.9133,-2.9133,0,0,-2.8997,-2.9009,-2.9013,-2.903,-2.9038,-2.9045,-2.9054,-2.9062,-2.9067,-2.9079,-2.9087,-2.9094,-2.9105,-2.9111,-2.9114,-2.9117,-2.9119,-2.9121,-2.912,-2.9121,-2.9122,-2.9121,-2.912,-2.9133,-2.9133,-2.9133,0,0,-2.8994,-2.9004,-2.901,-2.9018,-2.9031,-2.904,-2.9041,-2.9056,-2.9061,-2.9069,-2.9078,-2.9083,-2.9097,-2.9104,-2.9109,-2.9106,-2.9112,-2.9108,-2.9102,-2.9103,-2.9102,-2.9101,-2.9099,-2.9098,-2.9108,-2.9108,-2.9108,0,-2.8987,-2.8999,-2.9012,-2.9018,-2.9024,-2.9036,-2.9041,-2.9048,-2.9063,-2.9066,-2.9069,-2.9085,-2.9093,-2.91,-2.9099,-2.9103,-2.9104,-2.9106,-2.9101,-2.9101,-2.91,-2.9098,-2.9097,-2.9107,-2.9107,-2.9107,-2.9107,0,-2.899,-2.8998,-2.9001,-2.9014,-2.9021,-2.9026,-2.9038,-2.9043,-2.9049,-2.9057,-2.9064,-2.9074,-2.9083,-2.9086,-2.9092,-2.9093,-2.9094,-2.9099,-2.9105,-2.9098,-2.9096,-2.9095,-2.9106,-2.9106,-2.9107,-2.9107,0,0,-2.898,-2.8999,-2.9,-2.9005,-2.9019,-2.9025,-2.903,-2.904,-2.9043,-2.9052,-2.9056,-2.9066,-2.907,-2.9076,-2.9083,-2.9084,-2.9079,-2.9089,-2.909,-2.9086,-2.9078,-2.9074,-2.9073,-2.9083,-2.9083,-2.9083,-2.9077,0,-2.8978,-2.8989,-2.8999,-2.9006,-2.9012,-2.9022,-2.9027,-2.9035,-2.9042,-2.9047,-2.9055,-2.9061,-2.9067,-2.907,-2.9072,-2.9079,-2.9078,-2.908,-2.9086,-2.9086,-2.9082,-2.9072,-2.9068,-2.9061,-2.9076,-2.9076,-2.9076,0,-2.8978,-2.8986,-2.8993,-2.9005,-2.9008,-2.9012,-2.902,-2.9026,-2.9034,-2.9039,-2.9045,-2.9052,-2.9056,-2.9061,-2.9067,-2.9068,-2.9071,-2.9075,-2.9075,-2.9075,-2.908,-2.9071,-2.906,-2.9058,-2.9075,-2.9075,-2.9075,0,-2.8969,-2.8982,-2.8987,-2.8992,-2.9005,-2.9007,-2.9013,-2.9022,-2.9026,-2.9033,-2.9036,-2.9043,-2.9047,-2.9052,-2.906,-2.9063,-2.9064,-2.907,-2.9067,-2.9066,-2.9066,-2.9066,-2.9054,-2.9069,-2.9069,-2.9069,-2.9069,0,-2.8965,-2.8969,-2.8983,-2.8986,-2.899,-2.9001,-2.9004,-2.901,-2.9017,-2.9021,-2.903,-2.9033,-2.9045,-2.9048,-2.9055,-2.9057,-2.9059,-2.9062,-2.9064,-2.9061,-2.9061,-2.9063,-2.9063,-2.9069,-2.9069,-2.9069,-2.9069,0,-2.8956,-2.8966,-2.8972,-2.8984,-2.8987,-2.8989,-2.8999,-2.9001,-2.9008,-2.9013,-2.9014,-2.9025,-2.9029,-2.9038,-2.9046,-2.905,-2.9051,-2.9054,-2.9048,-2.9049,-2.9045,-2.9045,-2.9033,-2.9032,-2.9048,-2.9048,-2.9048,0,-2.8953,-2.8956,-2.8968,-2.8971,-2.8976,-2.8981,-2.8986,-2.8995,-2.8999,-2.9008,-2.9009,-2.9015,-2.902,-2.9027,-2.9034,-2.9039,-2.9042,-2.9038,-2.9043,-2.904,-2.9041,-2.904,-2.904,-2.9037,-2.9036,-2.9036,-2.9036,0,-2.8946,-2.895,-2.8956,-2.8963,-2.8968,-2.8973,-2.898,-2.8981,-2.8992,-2.8996,-2.9001,-2.9004,-2.9011,-2.9016,-2.9022,-2.9027,-2.9033,-2.9034,-2.9034,-2.9031,-2.9027,-2.9027,-2.9044,-2.9035,-2.9035,-2.9035,-2.9035,-2.9035,-2.894,-2.8942,-2.895,-2.8955,-2.8961,-2.8966,-2.8969,-2.8975,-2.898,-2.8986,-2.8991,-2.8995,-2.9002,-2.901,-2.9014,-2.9017,-2.902,-2.9019,-2.9019,-2.9019,-2.9017,-2.9026,-2.9018,-2.9018,-2.9018,-2.9018,-2.9018,0,-2.8932,-2.8938,-2.8943,-2.895,-2.8954,-2.8959,-2.8966,-2.8968,-2.8972,-2.8978,-2.8982,-2.8987,-2.8991,-2.8998,-2.9002,-2.9003,-2.9005,-2.9004,-2.9003,-2.9004,-2.9015,-2.9014,-2.9001,-2.9001,-2.9001,-2.9001,-2.9001,-2.9001,-2.8929,-2.8933,-2.8937,-2.8943,-2.8948,-2.8952,-2.8955,-2.8959,-2.8963,-2.8968,-2.8972,-2.8976,-2.8982,-2.8986,-2.899,-2.8992,-2.8992,-2.8989,-2.8992,-2.9002,-2.9004,-2.9005,-2.9005,-2.899,-2.899,-2.8981,-2.8981,-2.8981]}]]